TimeCST,TemperatureF,Dew PointF,Humidity,Sea Level PressureIn,VisibilityMPH,Wind Direction,Wind SpeedMPH,Gust SpeedMPH,PrecipitationIn,Events,Conditions,WindDirDegrees,DateUTC
12:51 AM,51.1,39.0,63,30.16,10.0,WSW,4.6,-,N/A,,Clear,240,2012-11-25 06:51:00
1:51 AM,50.0,39.0,66,30.14,10.0,West,3.5,-,N/A,,Clear,260,2012-11-25 07:51:00
2:51 AM,51.1,39.9,66,30.12,10.0,WNW,4.6,-,N/A,,Clear,290,2012-11-25 08:51:00
3:51 AM,50.0,39.0,66,30.11,10.0,NW,4.6,-,N/A,,Clear,320,2012-11-25 09:51:00
4:51 AM,51.1,43.0,74,30.09,10.0,North,5.8,-,N/A,,Clear,360,2012-11-25 10:51:00
5:51 AM,52.0,44.1,74,30.09,10.0,North,3.5,-,N/A,,Clear,360,2012-11-25 11:51:00
6:51 AM,52.0,43.0,71,30.10,10.0,Calm,Calm,-,N/A,,Mostly Cloudy,0,2012-11-25 12:51:00
7:51 AM,57.0,46.0,67,30.11,10.0,NW,3.5,-,N/A,,Mostly Cloudy,320,2012-11-25 13:51:00
8:51 AM,61.0,46.9,60,30.11,10.0,Calm,Calm,-,N/A,,Overcast,0,2012-11-25 14:51:00
9:51 AM,66.9,50.0,54,30.12,10.0,NNE,3.5,-,N/A,,Overcast,20,2012-11-25 15:51:00
10:22 AM,69.8,51.8,53,30.11,10.0,NE,5.8,-,N/A,,Scattered Clouds,40,2012-11-25 16:22:00
10:51 AM,73.0,55.0,53,30.10,10.0,ENE,4.6,-,N/A,,Scattered Clouds,60,2012-11-25 16:51:00
11:51 AM,75.9,59.0,56,30.07,10.0,ESE,9.2,-,N/A,,Mostly Cloudy,110,2012-11-25 17:51:00
12:51 PM,75.0,59.0,57,30.03,10.0,ESE,8.1,-,N/A,,Overcast,110,2012-11-25 18:51:00
1:12 PM,75.2,60.8,61,30.02,10.0,ESE,9.2,-,N/A,,Overcast,110,2012-11-25 19:12:00
1:51 PM,73.9,60.1,62,29.99,10.0,East,9.2,-,N/A,,Mostly Cloudy,90,2012-11-25 19:51:00
2:51 PM,75.9,62.1,62,29.98,10.0,East,9.2,-,N/A,,Mostly Cloudy,90,2012-11-25 20:51:00
3:51 PM,75.0,63.0,66,29.96,10.0,East,9.2,-,N/A,,Mostly Cloudy,100,2012-11-25 21:51:00
4:32 PM,75.2,62.6,65,29.95,10.0,East,9.2,-,N/A,,Mostly Cloudy,90,2012-11-25 22:32:00
4:44 PM,73.4,62.6,69,29.95,10.0,East,11.5,-,N/A,,Scattered Clouds,90,2012-11-25 22:44:00
4:51 PM,75.0,63.0,66,29.95,10.0,East,10.4,-,N/A,,Scattered Clouds,90,2012-11-25 22:51:00
5:51 PM,72.0,63.0,73,29.95,10.0,East,8.1,-,N/A,,Partly Cloudy,90,2012-11-25 23:51:00
6:51 PM,69.1,63.0,81,29.96,10.0,East,5.8,-,N/A,,Partly Cloudy,100,2012-11-26 00:51:00
7:51 PM,66.9,63.0,87,29.96,10.0,ESE,6.9,-,N/A,,Clear,110,2012-11-26 01:51:00
8:51 PM,69.1,63.0,81,29.98,10.0,SSE,6.9,-,N/A,,Mostly Cloudy,150,2012-11-26 02:51:00
9:51 PM,70.0,64.9,84,29.97,10.0,South,11.5,-,N/A,,Partly Cloudy,170,2012-11-26 03:51:00
10:51 PM,69.1,64.0,84,29.96,10.0,South,9.2,-,N/A,,Clear,170,2012-11-26 04:51:00
11:51 PM,66.9,62.1,84,29.96,10.0,South,6.9,-,N/A,,Clear,170,2012-11-26 05:51:00